RH
9 9 9 8 9 9 10 10 10 10 11 13 18 19 23 28 27 32 33 39 39 41 46 50 53 56 59 58 55 52 52 49 42 40 41 40 40 33 27 24 22 17 16
8 9 10 10 10 10 11 11 11 12 13 16 16 19 23 31 36 36 36 41 43 44 46 48 53 56 59 60 59 59 59 57 52 49 48 50 49 42 33 29 27 22 18
11 10 12 12 12 12 12 12 14 15 17 19 21 24 31 33 38 39 40 43 46 49 52 56 61 64 64 61 57 58 59 61 62 59 58 58 59 53 42 34 31 30 25
13 13 14 14 13 13 14 17 20 23 25 25 25 28 34 36 39 40 44 48 53 57 60 62 62 67 67 65 64 65 66 66 67 71 71 68 66 65 56 44 38 34 33
15 15 14 15 15 16 19 23 26 29 32 33 31 30 34 38 40 43 51 54 58 60 61 63 70 75 74 69 70 76 79 82 81 79 76 72 67 70 66 58 51 43 39
15 15 16 16 17 19 25 28 30 32 34 38 35 34 39 42 49 50 56 60 62 62 62 64 71 77 77 76 79 77 77 80 82 88 82 70 66 67 70 65 64 56 49
17 18 18 19 21 23 28 28 31 39 43 43 41 45 48 48 60 59 61 63 63 63 62 62 69 78 78 76 76 78 78 78 87 87 82 77 74 73 70 76 71 65 60
20 21 21 23 26 33 44 48 50 54 54 57 60 64 63 58 68 70 68 69 67 66 68 68 71 78 79 76 73 67 70 80 84 86 90 82 77 76 83 81 79 79 75
25 50 48 47 58 56 60 63 64 70 73 77 76 76 75 72 76 79 75 74 73 75 82 79 80 86 86 80 70 60 58 75 89 98 92 85 84 85 86 83 82 83 77
32 40 47 54 63 66 73 74 76 73 79 78 80 86 91 87 86 89 90 88 87 90 94 92 89 93 91 87 77 70 58 55 56 94 99 93 96 99 95 84 88 91 92
54 58 54 62 80 81 88 88 82 79 86 88 83 87 98 99 95 94 97 94 93 99 100 98 97 98 100 100 94 88 87 78 62 71 90 95 96 99 97 96 94 100 95
92 93 100 100 99 96 96 99 100 94 94 94 92 89 100 100 100 99 99 100 100 100 100 100 100 100 100 100 100 100 99 88 82 76 65 95 100 97 83 75 88 92 100
93 100 100 100 100 99 100 100 99 99 95 88 84 83 86 98 100 100 99 100 100 100 100 100 100 100 100 100 100 100 100 100 100 100 100 100 98 93 91 88 98 100 100
100 100 99 100 99 99 98 100 100 96 89 87 94 100 100 99 100 100 100 99 99 100 100 100 100 100 100 100 100 100 100 99 100 100 100 98 84 97 86 83 87 80 84
98 99 98 92 92 97 100 100 100 99 93 81 90 96 100 100 99 96 100 100 100 100 100 100 100 100 100 100 100 100 100 100 100 100 100 89 85 85 83 61 62 64 87
82 100 100 100 100 99 100 100 95 79 97 100 100 100 100 100 100 100 100 100 100 100 100 100 100 100 100 100 100 100 100 100 100 100 92 94 95 90 82 86 85 88 90
100 99 94 91 78 84 81 80 58 61 93 100 100 100 100 100 100 100 98 100 91 94 100 100 100 100 100 100 100 100 98 94 100 100 100 100 100 98 95 100 97 97 95
100 97 72 74 100 100 97 84 98 100 100 100 100 100 100 100 100 100 100 100 100 100 87 100 100 100 100 100 100 100 100 100 100 100 100 100 100 98 99 100 98 99 98
98 100 100 100 94 98 100 100 100 100 100 100 100 100 100 100 100 100 100 100 100 100 100 100 100 100 100 100 100 100 100 100 100 100 100 100 100 100 100 98 93 90 79
99 100 100 99 100 100 100 100 100 100 100 100 100 100 100 100 100 100 100 100 100 100 100 100 100 100 100 100 100 100 100 100 100 100 99 100 99 95 82 79 69 52 38
43 61 74 74 76 78 80 87 91 94 100 99 99 99 100 100 100 100 100 100 100 100 100 100 100 100 100 100 100 100 100 100 100 94 100 95 84 74 52 40 31 25 22
78 87 100 96 96 100 100 100 100 100 100 100 100 100 100 100 100 100 100 100 100 100 100 100 100 100 100 100 100 100 100 100 97 98 94 77 54 47 43 37 32 31 28
81 91 96 100 100 99 98 100 100 100 100 100 100 100 100 100 100 100 100 100 100 100 100 100 100 100 100 100 100 100 100 97 94 98 93 70 54 54 49 42 37 30 27
87 89 92 99 100 100 100 100 100 100 100 100 100 100 100 100 100 100 100 100 100 100 100 100 100 100 100 100 100 100 100 100 94 82 74 68 66 60 53 41 30 26 17
67 65 66 70 75 79 83 88 93 96 98 100 100 100 100 100 100 100 100 100 100 100 100 100 100 100 100 100 99 98 97 94 92 86 77 67 63 54 39 27 23 20 23
14 13 13 13 13 14 15 18 29 53 62 63 65 69 77 86 96 100 100 98 94 99 100 98 99 97 90 89 87 83 79 76 73 69 63 51 35 28 25 24 23 28 35
Wind_Speed
27 28 30 30 31 31 31 32 34 35 35 36 37 39 39 40 39 36 35 34 34 34 34 34 35 36 36 36 36 37 38 38 38 37 37 36 33 29 27 28 30 32 34
31 29 29 33 33 33 33 35 36 36 37 39 42 43 43 43 42 40 37 36 36 36 36 36 37 37 36 36 37 38 38 38 40 41 39 37 35 34 30 29 30 32 34
33 34 33 34 34 36 36 37 37 39 41 43 44 44 44 44 43 41 38 37 37 37 37 37 37 37 37 37 37 37 38 39 41 42 42 41 39 38 34 32 32 32 35
35 36 36 37 37 37 38 39 40 41 43 45 46 46 45 45 44 42 39 39 39 38 39 39 38 38 37 36 37 38 40 43 44 44 45 44 43 40 37 37 34 36 36
37 39 38 39 39 40 41 42 43 45 47 49 50 49 47 46 44 43 42 41 42 43 42 40 38 38 39 40 42 43 44 45 47 48 47 46 44 43 41 38 39 38 39
40 42 41 41 42 44 45 47 49 50 51 51 51 49 47 46 45 44 45 45 45 45 44 42 42 42 43 45 46 45 46 45 45 47 47 45 42 43 45 44 42 40 41
45 46 43 45 47 48 50 51 53 53 53 52 51 48 47 46 46 47 47 48 48 48 47 45 46 47 49 49 49 49 49 47 46 46 48 49 49 47 47 48 47 46 42
49 46 47 50 50 52 52 54 54 52 49 47 47 46 47 47 48 49 50 51 50 51 51 51 51 52 53 53 51 51 51 50 50 48 49 50 51 51 50 50 50 51 52
50 46 51 54 55 55 55 54 52 48 47 46 47 47 48 49 50 52 52 53 54 54 54 55 56 56 57 57 55 53 54 53 54 54 52 51 53 53 54 56 56 55 55
55 54 57 58 58 60 57 55 53 52 50 49 48 49 50 52 52 54 55 57 57 57 58 59 59 59 60 60 59 57 55 55 56 58 57 54 54 56 56 57 59 59 59
61 62 62 61 58 59 57 57 58 57 53 51 51 52 54 56 58 58 60 60 60 61 63 63 62 62 63 63 63 62 59 59 59 59 61 60 56 58 57 59 60 62 62
61 62 60 58 53 54 56 55 54 54 54 55 55 56 57 59 61 61 61 62 64 66 65 66 66 65 67 68 65 64 63 62 60 59 59 60 62 59 60 60 62 64 66
64 62 60 58 57 54 54 56 55 56 58 59 61 61 62 63 63 64 63 64 68 70 68 67 68 68 69 67 67 69 69 65 63 67 65 62 61 61 60 58 64 66 68
64 62 60 60 61 60 61 60 61 62 64 64 64 65 66 66 65 64 65 66 69 71 71 67 68 67 68 71 69 69 68 64 68 68 65 62 59 57 55 60 58 63 65
64 65 65 66 67 67 66 67 69 72 75 75 71 71 69 71 71 70 68 71 72 73 72 74 71 75 73 75 73 68 64 68 67 68 66 63 60 60 59 59 62 61 62
71 69 68 71 76 78 78 80 80 79 75 77 75 74 72 73 72 73 71 75 74 74 75 75 78 81 77 73 73 66 65 69 69 68 68 68 65 62 64 63 66 65 66
80 80 84 86 83 85 84 81 84 81 78 78 77 74 77 75 76 79 79 72 74 76 79 84 78 83 76 72 70 71 69 72 69 68 66 65 66 67 67 67 69 69 71
85 87 89 84 80 84 87 90 80 80 77 78 80 76 79 83 80 78 81 81 84 82 75 85 87 86 80 75 74 74 74 77 70 68 66 66 66 69 67 68 71 74 76
69 69 69 70 75 73 66 68 71 78 79 79 81 79 82 79 79 82 88 86 84 85 83 85 81 73 69 67 64 67 66 66 62 60 61 62 61 65 65 66 66 68 67
57 57 59 61 57 55 56 54 54 52 49 52 62 67 74 76 74 77 79 79 78 75 70 69 65 64 64 63 60 61 63 61 60 59 59 59 61 62 65 67 68 70 71
63 68 73 75 77 77 76 75 76 72 66 65 59 59 57 57 56 57 57 57 58 58 60 61 62 63 65 66 65 64 64 63 64 65 62 63 64 65 67 70 72 74 77
49 50 51 51 52 54 57 58 60 61 62 65 63 62 66 61 61 58 55 56 58 59 56 60 66 67 66 67 68 69 69 68 67 65 66 68 69 72 73 74 77 79 81
44 44 44 48 51 52 53 54 55 54 54 52 54 56 56 58 58 57 57 57 59 61 63 65 66 68 71 73 73 72 71 71 71 70 71 75 77 79 79 79 80 84 84
46 47 48 49 49 51 51 53 54 54 52 52 54 56 56 56 56 58 59 60 62 64 66 68 69 70 70 71 72 72 73 73 75 76 78 80 80 81 82 83 84 79 73
51 53 54 55 56 59 61 63 63 64 63 63 63 64 64 65 66 67 68 68 68 71 73 72 72 74 75 75 76 77 77 77 77 80 82 84 84 85 83 79 76 74 72
53 54 56 58 60 63 66 68 71 72 73 74 74 74 74 74 75 76 76 76 76 79 79 78 78 79 80 80 80 81 80 82 83 86 87 86 84 80 78 77 78 77 77
Wind_Direction
263 271 273 273 277 280 283 284 286 288 291 291 293 294 294 292 290 287 282 276 272 270 269 268 268 268 268 267 266 266 268 269 268 268 269 273 275 276 279 281 277 272 273
274 271 273 276 278 281 283 284 287 289 290 290 292 293 293 290 288 284 281 276 272 270 270 270 270 271 269 268 266 266 266 266 266 268 269 271 271 270 272 276 276 275 273
276 276 278 278 280 281 282 283 285 287 289 289 291 293 292 286 283 282 278 275 272 271 271 272 272 271 269 268 268 265 263 263 265 267 268 269 269 270 269 273 276 274 273
276 276 277 278 279 279 280 281 284 287 289 290 290 290 289 285 280 278 276 273 272 271 271 272 272 271 268 267 267 267 267 265 265 266 266 267 267 264 265 269 271 274 274
275 277 278 279 280 278 277 281 285 287 288 288 286 285 284 281 277 275 273 271 271 272 273 273 272 269 268 268 269 269 268 267 268 266 265 265 267 264 261 260 267 270 272
281 283 283 281 278 277 280 282 285 287 288 286 283 281 278 275 272 271 270 270 270 271 272 271 270 269 270 272 272 271 270 270 268 265 263 263 265 265 264 265 261 262 271
287 285 283 279 276 276 278 280 282 285 284 281 277 273 272 270 268 267 267 267 269 270 270 270 270 271 272 273 273 273 275 273 267 264 261 263 267 268 268 267 266 262 262
288 287 283 281 279 278 281 283 283 280 278 273 271 269 268 267 265 264 265 267 268 269 270 270 270 272 273 272 272 274 274 273 270 265 264 267 269 269 272 269 268 267 266
287 289 284 281 282 283 284 284 282 279 276 272 270 267 265 264 263 263 264 265 267 268 269 270 271 272 272 271 270 271 272 272 270 269 269 269 268 269 271 271 269 266 267
280 278 278 278 280 283 284 281 278 276 273 271 270 269 266 264 263 263 264 265 267 268 268 270 272 272 271 269 270 272 271 270 270 268 269 269 270 270 272 271 269 268 265
281 278 275 277 279 278 277 276 275 274 272 270 270 269 267 266 264 264 264 266 267 267 268 269 270 270 269 268 269 269 271 272 269 268 268 271 273 274 276 273 268 267 265
274 275 278 278 272 271 271 270 269 271 273 274 273 271 268 266 265 265 265 264 265 266 267 268 269 269 267 267 269 271 273 275 271 269 270 271 274 276 279 279 269 268 263
273 272 272 268 270 268 268 270 271 273 275 275 275 272 269 267 265 265 265 265 265 264 265 266 265 267 267 269 270 270 272 274 270 270 268 270 275 280 276 275 271 267 266
269 268 267 267 269 272 272 271 272 274 276 275 272 270 269 266 265 266 267 267 265 262 259 261 263 266 260 262 264 270 269 270 270 269 268 276 282 274 277 277 273 272 275
272 272 271 271 271 270 270 271 271 275 278 274 270 267 267 267 266 267 266 264 262 261 261 260 262 259 257 258 261 264 270 271 270 270 274 280 278 272 275 276 273 271 271
273 267 268 270 272 272 271 272 274 274 270 269 266 265 265 264 266 261 262 263 265 263 259 260 263 262 260 266 268 269 268 268 272 267 273 279 276 271 273 271 270 270 271
265 266 268 271 272 270 270 272 275 273 268 265 264 264 265 260 261 262 265 261 265 264 263 263 263 263 262 266 264 267 267 265 266 267 270 269 269 270 269 267 268 267 266
267 270 271 271 262 267 273 273 272 267 262 263 262 260 262 259 260 261 259 261 262 262 265 265 261 259 260 264 264 265 266 265 263 266 265 265 265 265 266 268 269 269 268
267 268 269 271 273 271 267 265 261 258 258 259 258 256 255 255 257 259 260 256 255 257 258 260 259 262 265 263 261 261 259 257 258 258 258 260 260 262 265 266 269 271 274
271 269 269 264 263 269 268 270 266 268 271 270 267 266 264 266 266 263 262 264 266 267 265 262 260 259 259 256 255 256 256 257 258 264 269 269 269 272 274 275 278 280 281
284 281 277 275 274 276 274 275 278 276 275 277 273 276 268 274 268 263 261 261 261 260 257 255 254 253 253 253 253 257 259 265 270 275 277 275 275 276 277 279 280 281 281
279 276 274 273 271 268 265 264 264 265 263 261 264 264 265 265 265 260 261 262 259 261 257 264 259 256 256 258 259 262 265 268 272 275 274 274 275 277 278 279 282 282 282
284 285 285 284 281 280 279 275 271 268 264 264 262 259 257 257 256 253 253 253 254 255 257 257 256 258 259 260 262 267 271 273 274 274 274 273 275 279 281 282 283 283 281
285 285 285 284 283 281 278 275 272 270 270 268 267 267 266 265 262 260 261 260 260 261 260 261 264 265 267 269 270 271 272 273 275 276 276 277 279 281 282 282 281 277 275
288 287 286 284 282 281 279 278 277 275 273 271 271 270 269 268 267 267 266 265 266 268 268 268 268 270 272 273 274 274 274 275 277 277 277 277 278 278 277 275 273 271 272
290 289 289 288 287 285 284 282 280 277 274 274 274 273 272 271 270 270 270 271 270 270 271 271 271 271 272 273 274 274 275 275 274 274 274 275 275 274 273 272 272 272 273